Regional Weather Roundup
Issued by NWS Grand Forks, ND

Home | Current Version | Previous Version | Graphics & Text | Print | Product List | Glossary On
Versions: 1 2 3 4 5 6 7 8 9 10 11 12 13 14 15 16 17 18 19 20 21 22 23 24 25 26 27 28 29 30 31 32 33 34 35 36 37 38 39 40 41 42 43 44 45 46 47 48 49 50
000
ASUS43 KFGF 270331
RWRFGF
PRAIRIE TO PINES  WEATHER ROUNDUP
NATIONAL WEATHER SERVICE EASTERN NORTH DAKOTA/GRAND FORKS ND
1000 PM CDT WED JUL 26 2017

 **SATELLITE DATA USED TO AUGMENT SKY COVER AT AUTOMATED STATIONS**
 *****  WEATHER ACROSS EASTERN NORTH DAKOTA  *****

CITY           SKY/WX    TMP DP  RH WIND       PRES   REMARKS
GRAND FORKS    FAIR      67  62  84 NW3       30.07R
GRAND FRKS AFB FAIR      65  60  85 N3        30.08R
DEVILS LAKE    FAIR      69  59  70 CALM      30.12S
FARGO          FAIR      70  62  76 NW7       30.07R
WAHPETON ARPT  FAIR      68  59  73 N5        30.08S
$$

 ***** WEATHER ACROSS CENTRAL AND WESTERN NORTH DAKOTA  *****

CITY           SKY/WX    TMP DP  RH WIND       PRES   REMARKS
BISMARCK       FAIR      73  54  51 E9        30.11R
MINOT          FAIR      70  56  61 NE6       30.11R
JAMESTOWN      FAIR      66  59  78 CALM      30.11R
MINOT AFB      FAIR      73  56  54 E6        30.10R
GARRISON         N/A     72  53  51 E9        30.11R
WILLISTON      FAIR      81  52  36 E13       30.07R
DICKINSON      FAIR      73  51  46 E12       30.09R
HETTINGER      FAIR      76  52  43 E10       30.11R
$$

 *****  OTHER AIRPORT OBSERVATIONS IN OUR AREA  *****

CITY           SKY/WX    TMP DP  RH WIND       PRES   REMARKS
WALHALLA       NOT AVBL
GRAFTON AIRPOR FAIR      66  61  82 NW3       30.10R
VALLEY CITY AR FAIR      68  64  88 CALM      30.13R
CANDO          NOT AVBL
CAVALIER APRT  FAIR      66  63  88 CALM      30.08R FOG
GWINNER        CLEAR     64  61  88 CALM      30.10R
SHEYENNE NWR     N/A     70  61  72 N2        29.95S
ROLLA            N/A     59  59 100 W3        30.14R
 ***** THE ABOVE OBSERVATIONS ARE NON NWS ARE NOT QUALITY
       CONTROLLED AND MAY MIS-REPORT RAIN FOR SNOW...
$$

  *****  WEATHER ACROSS NORTHERN MINNESOTA  *****

CITY           SKY/WX    TMP DP  RH WIND       PRES   REMARKS
FLAG ISLAND    FAIR      72  61  68 NW5       30.04S
WARROAD        FAIR      68  61  77 NW5       30.07R
ROSEAU         FAIR      68  61  77 CALM      30.07R
HALLOCK        FAIR      70  63  78 NW3       30.07R
THF RVR FALLS  FAIR      65  60  84 NW5       30.09R
BAUDETTE       FAIR      64  60  87 CALM      30.05R
WASKISH        FAIR      63  61  94 CALM      30.06R
CROOKSTON      FAIR      68  61  77 N5        30.08R
STEPHEN NDAWN    N/A     66  61  82 NW3         N/A
GREENBUSH NDAW   N/A     64  61  88 NW2         N/A
$$
  *****  WEATHER ACROSS CENTRAL AND WEST MINNESOTA  *****

CITY           SKY/WX    TMP DP  RH WIND       PRES   REMARKS
FOSSTON        FAIR      63  57  82 CALM      30.09R
BEMIDJI        FAIR      64  58  81 NW3       30.07R
PARK RAPIDS    FAIR      67  60  78 NW5       30.07R
ELBOW LAKE     FAIR      69  64  82 CALM      30.08R
WADENA         FAIR      66  59  77 NW5       30.07R
DETROIT LAKES  FAIR      68  61  77 NW6       30.10R
MOORHEAD       FAIR      66  61  82 CALM      30.09R
FERGUS FALLS   FAIR      70  61  73 CALM      30.07R
MORRIS MN      FAIR      70  63  78 N6        30.07R
STAPLES        FAIR      64  61  88 CALM      30.07R
$$
  *****  WEATHER ELSEWHERE ACROSS MINNESOTA  *****

CITY           SKY/WX    TMP DP  RH WIND       PRES   REMARKS
DULUTH         FAIR      68  61  78 N3        30.02R
INTRNTL FALLS  MOCLDY    60  57  89 CALM      30.03R
ELY            FAIR      61  59  94 CALM      30.04R
CLOQUET        FAIR      66  57  72 NW3       30.03S
WHEATON        FAIR      70  63  78 CALM      30.09S
BRAINERD       FAIR      65  61  87 CALM      30.05R
HIBBING        FAIR      62  59  90 NW3       30.04R
ALEXANDRIA     FAIR      70  62  76 NW6       30.09R
SAINT CLOUD    FAIR      68  65  90 N3        30.03R
MINNEAPOLIS    FAIR      77  60  55 N3        30.01R
$$

  *****  WEATHER ACROSS SOUTH DAKOTA  *****

CITY           SKY/WX    TMP DP  RH WIND       PRES   REMARKS
SIOUX FALLS    FAIR      68  62  81 N3        30.07R
BROOKINGS      FAIR      69  62  78 CALM      30.09R
WATERTOWN      FAIR      69  60  73 N3        30.09R
HURON          FAIR      71  60  68 CALM      30.08R
SISSETON         N/A     68  64  87 NW6       30.07R
ABERDEEN       FAIR      71  63  75 NE5       30.09R
MITCHELL       FAIR      73  65  75 CALM      30.08R
PIERRE         FAIR      75  54  47 SE6       30.08R
MOBRIDGE       FAIR      75  58  55 E12       30.07R
RAPID CITY     FAIR      74  50  42 E8        30.14R
$$

  *****  SOME WEATHER IN NEARBY STATES *****

CITY           SKY/WX    TMP DP  RH WIND       PRES   REMARKS
GLASGOW MT     FAIR      82  44  26 E13       29.99S
GREAT FALLS MT FAIR      82  37  20 SE8       30.00S
CHEYENNE WY    CLOUDY    68  56  65 NE5       30.33R
SCOTTSBLUFF NE FAIR      73  60  63 NE6       30.19R
OMAHA NE       MOCLDY    74  71  91 N3        29.99R
DES MOINES IA  CLOUDY    75  73  93 N5        29.97R
DAVENPORT IA   CLOUDY    72  70  93 SW3       29.97F
CHICAGO IL     CLOUDY    79  70  74 S9        29.96F
EAU CLAIRE WI  FAIR      67  63  87 CALM      29.99R
LA CROSSE WI   LGT RAIN  77  73  87 N6        29.97S
$$

  *****  SOME NATIONAL WEATHER *****

CITY           SKY/WX    TMP DP  RH WIND       PRES   REMARKS
LA GUARDIA NY  FAIR      70  58  65 S7        30.13F
RALEIGH NC     MOCLDY    81  68  64 VRB5      30.10R
ATLANTA GA     FAIR      77  65  66 CALM      30.11R
NEW ORLEANS LA FAIR      83  74  74 CALM      30.06S
OKLAHOMA CITY  MOCLDY    86  69  56 S13       29.96S HX  90
ALBUQUERQUE NM MOCLDY    89  52  28 SW12      30.13R
SALT LAKE CITY CLOUDY    83  60  45 N10       30.10R THUNDER
LOS ANGELES CA FAIR      69  64  84 W8        29.95R
BOISE ID       FAIR      83  53  35 SE9       30.00S
SEATTLE WA     FAIR      78  55  44 W6        30.03S
$$

*** WEATHER ACROSS MANITOBA...SASKATCHEWAN AND ONTARIO ***
                ***ONTARIO***

CITY           SKY/WX    TMP DP  RH WIND       PRES   REMARKS
GERALDTON      PTCLDY    64  57  77 N8        29.95R
THUNDER BAY    MOCLDY    64  59  82 SW5       29.95R
SIOUX LOOKOUT  PTCLDY    59  57  94 CALM      30.00R
TORONTO        LGT RAIN  66  63  88 VRB2      30.01F
BIG TROUT LK   CLEAR     59  50  72 N5        29.97R
PICKLE LAKE    NOT AVBL
DRYDEN         CLEAR     68  59  73 W6        30.02R
KENORA         PTCLDY    72  57  60 W6        30.05
$$
                *** MANITOBA***

CITY           SKY/WX    TMP DP  RH WIND       PRES   REMARKS
BRANDON        PTCLDY    64  61  88 W5        30.09R
DAUPHIN        CLEAR     68  63  83 SW7       30.06R
ISLAND LAKE    NOT AVBL
PILOT MOUND      N/A     68  61  77 SW2         N/A
THE PAS        CLOUDY    72  61  68 W7        30.02R
THOMPSON       PTCLDY    64  57  77 CALM      29.98R
WINNIPEG       PTCLDY    64  61  88 W7        30.06R
LYNN LAKE      CLOUDY    63  61  94 S6        29.95F
CHURCHILL      PTCLDY    63  55  77 S8        29.90R
GILLAM         PTCLDY    64  52  63 S5        29.96R
$$
                ***SASKATCHEWAN***

CITY           SKY/WX    TMP DP  RH WIND       PRES   REMARKS
ESTEVAN        PTCLDY    66  55  68 E6        30.09S
KINDERSLEY     CLEAR     70  57  64 E12       30.01F
LLOYDMINSTER   PTCLDY    70  57  64 SE12      30.01S
PRINCE ALBERT  MOCLDY    64  59  82 E2        30.06R
REGINA         CLEAR     75  52  43 E9        30.07R
YORKTON        CLEAR     70  59  68 E3        30.10R
N. BATTLEFORD  CLEAR     64  55  72 E8        30.05S
LA RONGE       MOCLDY    68  57  68 SW2       29.99S
SASKATOON      PTCLDY    68  57  68 E10       30.06R
SWIFT CURRENT  CLEAR     73  50  43 E9        30.05S
$$
NOTE: THESE ARE AUTOMATED STATIONS WITH LIMITED QUALITY CONTROL
      "FAIR" INDICATES FEW OR NO CLOUDS BELOW 12,000 FEET WITH NO
      SIGNIFICANT WEATHER AND/OR OBSTRUCTIONS TO VISIBILITY.
      SKY/WX - SKY CONDITION AND SIGNIFICANT WEATHER.
      TMP - AIR TEMPERATURE.    DP   - DEWPOINT TEMPERATURE.
      RH  - RELATIVE HUMIDITY.  PRES - PRESSURE.
      HX  - HEAT INDEX.         WCI  - WIND CHILL INDEX.
$




USA.gov is the U.S. government's official web portal to all federal, state and local government web resources and services.